EW6571 Weather Reports


time (UTC)temp
F
wind
direction
speed
knots
gust
knots
rain 1hr
in
rain 24hr
in
rain mn
in
humidity
%
barometer
mb
20260505040012 52 156 0.0 4.3 0.00 0.00 0.00 54 1001.1
20260505034510 51 156 0.0 4.3 0.00 0.00 0.00 54 1000.7
20260505033009 52 157 0.0 0.0 0.00 0.00 0.00 53 1000.5
20260505031509 52 246 0.9 2.6 0.00 0.00 0.00 50 1000.2
20260505030008 53 243 3.5 7.8 0.00 0.00 0.00 47 999.8
20260505024524 55 278 5.2 13.0 0.00 0.00 0.00 45 999.8
20260505023006 55 264 9.6 13.9 0.00 0.00 0.00 45 999.6
20260505021506 56 275 9.6 19.1 0.00 0.00 0.00 42 999.3
20260505020005 59 296 10.4 13.9 0.00 0.00 0.00 37 998.9
20260505014507 62 289 7.8 14.8 0.00 0.00 0.00 32 998.7
20260505013015 64 265 3.5 6.1 0.00 0.00 0.00 33 998.4
20260505011503 66 304 0.0 3.5 0.00 0.00 0.00 29 998.6
20260505004502 65 272 0.0 0.0 0.00 0.00 0.00 31 998.8
20260505003059 63 272 0.0 7.8 0.00 0.00 0.00 33 998.9
20260505001600 65 273 6.1 13.9 0.00 0.00 0.00 28 999.0
20260505000108 66 266 6.1 14.8 0.00 0.00 0.00 27 998.9
20260504234629 66 269 12.2 20.9 0.00 0.00 0.00 28 998.9
20260504233057 64 267 8.7 13.9 0.00 0.00 0.00 28 999.1
20260504231603 63 263 8.7 12.2 0.00 0.00 0.00 32 999.3
20260504230058 64 217 0.0 8.7 0.00 0.00 0.00 29 999.3
20260504224555 65 286 0.0 4.3 0.00 0.00 0.00 30 999.4
20260504223052 65 286 0.0 7.8 0.00 0.00 0.00 28 999.6
20260504221557 64 292 0.0 11.3 0.00 0.00 0.00 29 999.9
20260504220047 63 311 3.5 9.6 0.00 0.00 0.00 31 1000.2
20260504214546 64 296 8.7 13.0 0.00 0.00 0.00 31 1000.3
20260504213045 65 302 3.5 8.7 0.00 0.00 0.00 31 1000.5
20260504211550 64 79 4.3 14.8 0.00 0.00 0.00 35 1000.9
20260504204553 62 271 10.4 20.0 0.00 0.00 0.00 31 1000.7
20260504203046 64 284 12.2 15.6 0.00 0.00 0.00 29 1000.4
20260504201546 66 272 3.5 9.6 0.00 0.00 0.00 28 1000.4
20260504200038 65 258 6.1 8.7 0.00 0.00 0.00 26 1000.5
20260504194556 64 265 4.3 11.3 0.00 0.00 0.00 28 1000.7
20260504193034 63 284 0.0 0.0 0.00 0.00 0.00 31 1000.9
20260504191542 63 284 0.0 2.6 0.00 0.00 0.00 32 1001.1
20260504190035 63 283 0.9 6.1 0.00 0.00 0.00 33 1001.2
20260504184537 64 232 2.6 7.8 0.00 0.00 0.00 28 1001.2
20260504183028 65 271 0.9 2.6 0.00 0.00 0.00 27 1001.3
20260504181526 64 234 0.9 8.7 0.00 0.00 0.00 29 1001.5
20260504180028 64 262 0.9 4.3 0.00 0.00 0.00 29 1001.8
20260504174522 64 74 1.7 7.0 0.00 0.00 0.00 34 1001.8
20260504173021 63 65 1.7 7.0 0.00 0.00 0.00 37 1002.1
20260504171514 59 72 2.6 4.3 0.00 0.00 0.00 43 1002.2
20260504081549 40 186 0.0 3.5 0.00 0.00 0.00 66 1004.3
20260504050024 46 176 0.0 4.3 0.00 0.00 0.00 55 1005.0
20260504044523 49 150 0.0 2.6 0.00 0.00 0.00 47 1005.0
20260504043022 52 150 1.7 6.1 0.00 0.00 0.00 42 1005.1
20260504041522 51 96 4.3 7.8 0.00 0.00 0.00 44 1005.0